This is the latest recevied weather packets stored in our database for station/object N9CQL. If no packets are shown the sender has not sent any weather packets the latest 10 day(s).
| Time | Temp. | Humidity | Pressure | Rain* | Wind** | Luminosity | Snow |
|---|---|---|---|---|---|---|---|
| 1777121223 | 8.33° C | 92% | 1014.3 hPa | 0 mm | - | 52 W/m² | - |
| 1777120920 | 8.33° C | 92% | 1014.6 hPa | 0 mm | - | 34 W/m² | - |
| 1777120616 | 8.33° C | 91% | 1014.4 hPa | 0 mm | - | 36 W/m² | - |
| 1777120312 | 8.33° C | 91% | 1014.4 hPa | 0 mm | - | 29 W/m² | - |
| 1777120006 | 8.33° C | 91% | 1014.6 hPa | 0 mm | - | 27 W/m² | - |
| 1777119704 | 8.33° C | 91% | 1014.3 hPa | 0 mm | - | 23 W/m² | - |
| 1777119398 | 8.33° C | 91% | 1014.3 hPa | 0 mm | - | 26 W/m² | - |
| 1777119093 | 7.78° C | 91% | 1014.2 hPa | 0 mm | - | 25 W/m² | - |
| 1777118789 | 7.78° C | 91% | 1014.1 hPa | 0 mm | - | 23 W/m² | - |
| 1777118486 | 7.78° C | 91% | 1014.2 hPa | 0 mm | - | 19 W/m² | - |
| 1777118181 | 7.78° C | 91% | 1014.1 hPa | 0 mm | - | 21 W/m² | - |
| 1777117878 | 7.78° C | 92% | 1014 hPa | 0 mm | - | 18 W/m² | - |
| 1777117575 | 7.78° C | 92% | 1014.2 hPa | 0 mm | - | 14 W/m² | - |
| 1777117272 | 7.78° C | 92% | 1013.6 hPa | 0 mm | - | 12 W/m² | - |
| 1777116967 | 7.78° C | 92% | 1013.9 hPa | 0 mm | - | 10 W/m² | - |
| 1777116663 | 7.22° C | 92% | 1013.7 hPa | 0 mm | - | 9 W/m² | - |
| 1777116359 | 7.22° C | 93% | 1013.4 hPa | 0 mm | - | 5 W/m² | - |
| 1777116054 | 7.22° C | 93% | 1013.7 hPa | 0 mm | - | 3 W/m² | - |
| 1777115749 | 7.22° C | 93% | 1013.5 hPa | 0 mm | - | 3 W/m² | - |
| 1777115445 | 7.22° C | 93% | 1013.5 hPa | 0 mm | - | 0 W/m² | - |
| 1777115141 | 7.78° C | 93% | 1013.4 hPa | 0 mm | - | 0 W/m² | - |
| 1777114839 | 7.78° C | 93% | 1013.5 hPa | 0 mm | - | 0 W/m² | - |
| 1777114535 | 7.78° C | 93% | 1013.3 hPa | 0 mm | - | 0 W/m² | - |
| 1777114229 | 7.78° C | 93% | 1013.5 hPa | 0 mm | - | 0 W/m² | - |
| 1777113926 | 7.78° C | 92% | 1013.1 hPa | 0 mm | - | 0 W/m² | - |
* Rain latest hour (hover to see other rain measurements)
** Current wind speed in m/s (hover to see current wind gust speed)